OneWeb SL0546

operational
NORAD ID: 56048 Int'l Des: 2023-043 Owner: ONEWEBN Country: UK Constellation: oneweb
LEOCIRCULARPOLARONEWEB_TYPE

OneWeb SL0546について

説明を読み込み中...

リアルタイム位置

3D地球を読み込み中...

次回通過

高度履歴

Altitude vs Time

uPlot chart will show altitude changes over time

軌道要素

1 56048U 23043C 26034.11695361 .00000073 00000-0 15660-3 0 9993
2 56048 87.9012 255.4595 0002169 90.3519 269.7860 13.16593474141324
Epoch: Feb 3, 2026 • Age: 7 hours

現在のステータス

高度 1201.6 km
速度 7.26 km/s
衛星直下点 35.91°N, 30.96°W
打ち上げ日 Mar 26, 2023
運用期間 2.8 years
タイプ internet

技術仕様

分類 Payload
質量 148.00 kg
乾燥質量 140.00 kg
総質量 148.00 kg
長さ 1.30 m
直径 1.00 m
スパン 5.00 m
形状 Trapezoid+2 pan
製造者 ONEWUS
バスタイプ ARROW
フェーズステータス In Orbit
所有者/国 ONEWEBN/UK

大規模コンステレーション

Loading constellations...